QPF
0.07 0.08 0.08 0.07 0.06 0.05 0.05 0.04 0.04 0.03 0.01 0.01 0.01 0.01 0.02 0.04 0.05 0.05 0.05 0.04 0.03 0.03 0.02 0.02 0.02 0.02 0.03 0.03 0.03 0.03 0.04 0.04 0.04 0.02 0.02 0.02 0.03 0.03 0.03 0.02 0.02 0.02 0.02
0.06 0.08 0.09 0.10 0.08 0.06 0.06 0.05 0.04 0.03 0.02 0.01 0.01 0.01 0.02 0.03 0.04 0.05 0.05 0.05 0.04 0.03 0.03 0.02 0.02 0.02 0.03 0.03 0.04 0.04 0.03 0.03 0.03 0.03 0.02 0.02 0.02 0.03 0.03 0.04 0.04 0.03 0.03
0.06 0.06 0.07 0.08 0.09 0.07 0.05 0.05 0.05 0.04 0.03 0.02 0.02 0.02 0.03 0.03 0.03 0.04 0.05 0.05 0.04 0.04 0.04 0.03 0.02 0.02 0.01 0.02 0.02 0.02 0.03 0.03 0.02 0.03 0.03 0.03 0.03 0.03 0.04 0.04 0.05 0.05 0.04
0.06 0.06 0.06 0.06 0.06 0.06 0.05 0.05 0.04 0.04 0.04 0.03 0.03 0.03 0.04 0.04 0.04 0.03 0.04 0.05 0.05 0.04 0.03 0.03 0.02 0.01 0.01 0.01 0.01 0.01 0.02 0.02 0.03 0.03 0.04 0.04 0.03 0.03 0.04 0.04 0.05 0.05 0.05
0.06 0.07 0.07 0.05 0.04 0.04 0.04 0.05 0.05 0.04 0.04 0.04 0.04 0.04 0.04 0.05 0.04 0.04 0.04 0.05 0.05 0.04 0.03 0.02 0.01 0.01 0.01 0.01 0.01 0.02 0.02 0.02 0.02 0.03 0.03 0.03 0.03 0.03 0.03 0.03 0.03 0.04 0.05
0.03 0.06 0.06 0.06 0.05 0.04 0.04 0.04 0.05 0.06 0.04 0.04 0.04 0.04 0.04 0.05 0.06 0.06 0.05 0.04 0.04 0.03 0.02 0.01 0.01 0.01 0.01 0.01 0.02 0.02 0.02 0.03 0.03 0.03 0.03 0.02 0.02 0.02 0.02 0.02 0.03 0.04 0.05
0.02 0.03 0.05 0.05 0.06 0.05 0.05 0.04 0.04 0.05 0.06 0.04 0.03 0.03 0.04 0.05 0.07 0.07 0.06 0.04 0.03 0.02 0.02 0.02 0.01 0.01 0.01 0.01 0.01 0.02 0.02 0.02 0.02 0.02 0.02 0.02 0.02 0.01 0.02 0.02 0.03 0.04 0.04
0.02 0.03 0.03 0.04 0.05 0.06 0.05 0.05 0.05 0.05 0.05 0.05 0.04 0.03 0.04 0.04 0.05 0.05 0.06 0.04 0.03 0.03 0.02 0.02 0.02 0.02 0.02 0.02 0.02 0.02 0.02 0.02 0.02 0.02 0.01 0.01 0.02 0.02 0.02 0.03 0.04 0.05 0.05
0.02 0.02 0.02 0.02 0.03 0.04 0.05 0.05 0.06 0.06 0.05 0.06 0.05 0.04 0.04 0.04 0.05 0.05 0.05 0.05 0.04 0.04 0.03 0.02 0.02 0.02 0.03 0.03 0.03 0.03 0.03 0.03 0.03 0.03 0.03 0.03 0.03 0.03 0.04 0.05 0.06 0.06 0.06
0.02 0.01 0.01 0.01 0.02 0.03 0.03 0.04 0.05 0.06 0.06 0.05 0.06 0.05 0.04 0.04 0.04 0.05 0.04 0.05 0.05 0.05 0.05 0.04 0.03 0.03 0.03 0.04 0.04 0.04 0.04 0.03 0.03 0.04 0.04 0.04 0.04 0.04 0.05 0.05 0.05 0.06 0.05
0.01 0.01 0.01 0.01 0.02 0.02 0.02 0.03 0.04 0.05 0.05 0.06 0.06 0.06 0.05 0.05 0.05 0.05 0.05 0.05 0.05 0.05 0.05 0.05 0.04 0.04 0.04 0.04 0.04 0.04 0.04 0.04 0.04 0.04 0.04 0.04 0.04 0.04 0.04 0.04 0.04 0.05 0.05
0.01 0.01 0.01 0.02 0.02 0.02 0.02 0.02 0.03 0.04 0.05 0.06 0.06 0.06 0.06 0.05 0.05 0.05 0.05 0.05 0.05 0.05 0.05 0.05 0.04 0.04 0.05 0.05 0.05 0.05 0.05 0.05 0.04 0.05 0.05 0.05 0.04 0.04 0.04 0.03 0.03 0.04 0.04
0.01 0.01 0.01 0.02 0.02 0.02 0.02 0.02 0.03 0.03 0.04 0.05 0.06 0.06 0.06 0.06 0.06 0.05 0.05 0.05 0.05 0.05 0.05 0.05 0.05 0.06 0.06 0.06 0.06 0.06 0.06 0.05 0.05 0.05 0.05 0.04 0.04 0.04 0.05 0.05 0.05 0.04 0.04
0.02 0.01 0.01 0.02 0.02 0.02 0.03 0.03 0.03 0.03 0.03 0.04 0.04 0.04 0.05 0.05 0.05 0.06 0.06 0.05 0.05 0.06 0.06 0.06 0.06 0.07 0.07 0.07 0.06 0.06 0.05 0.05 0.05 0.05 0.05 0.04 0.05 0.06 0.07 0.07 0.07 0.06 0.06
0.02 0.02 0.02 0.02 0.02 0.02 0.03 0.03 0.03 0.03 0.03 0.03 0.03 0.03 0.04 0.05 0.05 0.06 0.07 0.06 0.05 0.05 0.06 0.07 0.07 0.07 0.06 0.05 0.05 0.05 0.05 0.04 0.05 0.05 0.05 0.05 0.05 0.05 0.06 0.06 0.06 0.06 0.06
0.02 0.02 0.02 0.02 0.02 0.02 0.02 0.03 0.03 0.03 0.03 0.03 0.03 0.03 0.03 0.04 0.05 0.05 0.07 0.07 0.06 0.06 0.08 0.08 0.06 0.06 0.05 0.04 0.04 0.04 0.04 0.04 0.04 0.04 0.04 0.04 0.05 0.05 0.05 0.05 0.05 0.05 0.05
0.02 0.02 0.02 0.02 0.02 0.02 0.02 0.02 0.03 0.03 0.03 0.03 0.03 0.03 0.03 0.03 0.04 0.05 0.07 0.08 0.08 0.08 0.08 0.07 0.06 0.05 0.05 0.04 0.04 0.04 0.03 0.03 0.04 0.04 0.05 0.04 0.04 0.04 0.04 0.04 0.04 0.04 0.04
0.02 0.02 0.02 0.03 0.03 0.02 0.02 0.02 0.02 0.02 0.03 0.03 0.03 0.03 0.03 0.03 0.04 0.04 0.05 0.07 0.08 0.09 0.08 0.06 0.06 0.05 0.05 0.05 0.04 0.04 0.04 0.04 0.04 0.05 0.05 0.05 0.04 0.04 0.04 0.04 0.04 0.04 0.04
0.02 0.02 0.03 0.03 0.03 0.02 0.02 0.02 0.02 0.02 0.02 0.02 0.03 0.04 0.03 0.03 0.04 0.04 0.04 0.04 0.05 0.06 0.06 0.06 0.06 0.05 0.05 0.05 0.05 0.04 0.04 0.04 0.04 0.04 0.05 0.05 0.05 0.05 0.05 0.04 0.04 0.04 0.04
0.03 0.03 0.03 0.03 0.02 0.02 0.02 0.02 0.02 0.02 0.01 0.01 0.02 0.02 0.03 0.03 0.04 0.04 0.04 0.04 0.04 0.05 0.05 0.05 0.05 0.05 0.05 0.05 0.04 0.04 0.04 0.04 0.04 0.04 0.04 0.04 0.04 0.05 0.05 0.04 0.05 0.04 0.04
0.03 0.03 0.03 0.03 0.02 0.02 0.02 0.02 0.02 0.02 0.02 0.02 0.02 0.03 0.03 0.03 0.04 0.04 0.04 0.05 0.05 0.05 0.05 0.05 0.05 0.05 0.05 0.04 0.04 0.04 0.04 0.04 0.04 0.04 0.04 0.04 0.04 0.04 0.04 0.04 0.04 0.04 0.04
0.03 0.03 0.02 0.02 0.02 0.02 0.02 0.02 0.03 0.03 0.03 0.03 0.03 0.04 0.04 0.04 0.04 0.04 0.04 0.05 0.05 0.05 0.05 0.05 0.05 0.05 0.04 0.04 0.04 0.03 0.03 0.04 0.04 0.04 0.04 0.04 0.04 0.04 0.04 0.04 0.04 0.04 0.04
0.03 0.02 0.02 0.02 0.02 0.02 0.02 0.02 0.02 0.03 0.03 0.03 0.03 0.03 0.03 0.04 0.04 0.04 0.04 0.04 0.04 0.04 0.04 0.04 0.04 0.04 0.04 0.03 0.03 0.03 0.03 0.03 0.03 0.03 0.04 0.04 0.04 0.04 0.04 0.04 0.04 0.04 0.04
0.03 0.03 0.02 0.02 0.02 0.02 0.02 0.02 0.02 0.02 0.02 0.02 0.02 0.03 0.03 0.03 0.04 0.04 0.04 0.04 0.04 0.04 0.03 0.03 0.03 0.03 0.03 0.03 0.03 0.03 0.03 0.03 0.03 0.03 0.03 0.04 0.04 0.04 0.04 0.04 0.04 0.04 0.04
0.03 0.02 0.02 0.02 0.02 0.02 0.02 0.02 0.02 0.02 0.02 0.02 0.02 0.02 0.02 0.02 0.03 0.03 0.03 0.03 0.03 0.03 0.03 0.03 0.03 0.03 0.02 0.02 0.02 0.02 0.02 0.02 0.03 0.03 0.03 0.03 0.03 0.03 0.03 0.04 0.04 0.04 0.04
0.02 0.02 0.02 0.02 0.01 0.01 0.02 0.02 0.02 0.02 0.02 0.02 0.02 0.02 0.02 0.02 0.02 0.02 0.02 0.03 0.02 0.02 0.02 0.02 0.02 0.02 0.02 0.02 0.02 0.02 0.02 0.02 0.03 0.03 0.03 0.03 0.03 0.03 0.03 0.03 0.03 0.03 0.03
MSLP
1012.14 1011.60 1011.23 1011.05 1011.06 1011.26 1011.61 1012.10 1012.70 1013.38 1014.10 1014.86 1015.61 1016.35 1017.06 1017.73 1018.37 1018.97 1019.55 1020.10 1020.65 1021.19 1021.72 1022.26 1022.81 1023.34 1023.88 1024.40 1024.90 1025.38 1025.82 1026.22 1026.58 1026.89 1027.16 1027.39 1027.58 1027.75 1027.91 1028.06 1028.23 1028.41 1028.60
1013.06 1012.37 1011.81 1011.42 1011.21 1011.17 1011.30 1011.59 1012.02 1012.57 1013.21 1013.93 1014.68 1015.46 1016.23 1016.97 1017.68 1018.34 1018.96 1019.54 1020.08 1020.61 1021.12 1021.63 1022.15 1022.68 1023.21 1023.75 1024.28 1024.80 1025.29 1025.74 1026.16 1026.52 1026.83 1027.10 1027.33 1027.53 1027.72 1027.89 1028.07 1028.26 1028.46
1014.14 1013.34 1012.63 1012.05 1011.61 1011.33 1011.22 1011.27 1011.49 1011.86 1012.37 1013.00 1013.72 1014.49 1015.28 1016.07 1016.84 1017.56 1018.22 1018.83 1019.39 1019.92 1020.43 1020.93 1021.44 1021.96 1022.50 1023.06 1023.62 1024.17 1024.70 1025.20 1025.66 1026.07 1026.42 1026.73 1027.00 1027.24 1027.47 1027.68 1027.89 1028.09 1028.30
1015.32 1014.46 1013.65 1012.91 1012.27 1011.75 1011.38 1011.18 1011.15 1011.30 1011.63 1012.12 1012.73 1013.45 1014.23 1015.03 1015.82 1016.58 1017.29 1017.94 1018.54 1019.10 1019.62 1020.14 1020.66 1021.20 1021.75 1022.32 1022.90 1023.47 1024.03 1024.55 1025.04 1025.47 1025.86 1026.20 1026.51 1026.80 1027.07 1027.33 1027.58 1027.82 1028.05
1016.54 1015.69 1014.81 1013.95 1013.14 1012.41 1011.79 1011.32 1011.03 1010.93 1011.03 1011.32 1011.79 1012.39 1013.10 1013.86 1014.65 1015.43 1016.18 1016.87 1017.52 1018.13 1018.70 1019.26 1019.81 1020.38 1020.95 1021.54 1022.13 1022.71 1023.26 1023.78 1024.26 1024.70 1025.10 1025.46 1025.80 1026.13 1026.45 1026.77 1027.09 1027.39 1027.66
1017.76 1016.94 1016.05 1015.11 1014.16 1013.25 1012.41 1011.69 1011.13 1010.77 1010.61 1010.66 1010.93 1011.37 1011.95 1012.63 1013.38 1014.15 1014.91 1015.65 1016.35 1017.02 1017.66 1018.29 1018.90 1019.51 1020.11 1020.72 1021.31 1021.87 1022.41 1022.90 1023.35 1023.77 1024.15 1024.52 1024.87 1025.23 1025.61 1025.99 1026.38 1026.75 1027.10
1018.91 1018.15 1017.28 1016.31 1015.27 1014.22 1013.19 1012.25 1011.45 1010.82 1010.39 1010.19 1010.22 1010.45 1010.87 1011.42 1012.08 1012.80 1013.56 1014.33 1015.08 1015.82 1016.54 1017.24 1017.92 1018.59 1019.23 1019.85 1020.44 1020.98 1021.48 1021.93 1022.34 1022.71 1023.06 1023.41 1023.77 1024.16 1024.58 1025.02 1025.48 1025.95 1026.38
1019.92 1019.25 1018.42 1017.46 1016.38 1015.24 1014.08 1012.97 1011.96 1011.10 1010.42 1009.97 1009.74 1009.75 1009.95 1010.34 1010.87 1011.51 1012.22 1012.98 1013.77 1014.57 1015.36 1016.13 1016.89 1017.61 1018.30 1018.94 1019.52 1020.05 1020.51 1020.91 1021.27 1021.60 1021.91 1022.24 1022.59 1022.99 1023.45 1023.94 1024.48 1025.02 1025.55
1020.75 1020.16 1019.40 1018.48 1017.41 1016.23 1015.01 1013.79 1012.63 1011.58 1010.70 1010.01 1009.55 1009.32 1009.30 1009.49 1009.85 1010.37 1011.00 1011.72 1012.50 1013.32 1014.15 1014.98 1015.78 1016.56 1017.28 1017.94 1018.53 1019.05 1019.49 1019.86 1020.19 1020.48 1020.77 1021.08 1021.43 1021.84 1022.32 1022.86 1023.44 1024.05 1024.65
1021.36 1020.85 1020.17 1019.31 1018.29 1017.14 1015.91 1014.65 1013.41 1012.25 1011.22 1010.34 1009.68 1009.22 1008.98 1008.95 1009.13 1009.48 1009.98 1010.60 1011.33 1012.11 1012.94 1013.78 1014.61 1015.41 1016.15 1016.83 1017.43 1017.95 1018.40 1018.77 1019.09 1019.39 1019.68 1019.99 1020.35 1020.78 1021.27 1021.83 1022.44 1023.08 1023.73
1021.73 1021.29 1020.69 1019.91 1018.98 1017.90 1016.73 1015.50 1014.26 1013.06 1011.94 1010.94 1010.11 1009.46 1009.02 1008.78 1008.74 1008.89 1009.22 1009.70 1010.30 1011.00 1011.76 1012.56 1013.36 1014.14 1014.89 1015.57 1016.19 1016.73 1017.20 1017.61 1017.97 1018.30 1018.62 1018.97 1019.36 1019.80 1020.31 1020.87 1021.49 1022.14 1022.79
1021.86 1021.48 1020.95 1020.27 1019.45 1018.49 1017.43 1016.29 1015.11 1013.94 1012.80 1011.74 1010.80 1010.01 1009.39 1008.95 1008.70 1008.64 1008.76 1009.05 1009.47 1010.02 1010.64 1011.33 1012.05 1012.77 1013.48 1014.15 1014.77 1015.34 1015.86 1016.33 1016.76 1017.16 1017.56 1017.97 1018.41 1018.88 1019.40 1019.96 1020.55 1021.17 1021.80
1021.78 1021.44 1020.98 1020.40 1019.70 1018.88 1017.97 1016.96 1015.90 1014.82 1013.73 1012.67 1011.68 1010.79 1010.03 1009.42 1008.97 1008.69 1008.59 1008.65 1008.86 1009.19 1009.63 1010.15 1010.73 1011.33 1011.96 1012.58 1013.19 1013.78 1014.35 1014.89 1015.41 1015.91 1016.41 1016.90 1017.40 1017.91 1018.44 1018.99 1019.55 1020.13 1020.70
1021.54 1021.22 1020.82 1020.33 1019.75 1019.08 1018.33 1017.49 1016.58 1015.61 1014.61 1013.60 1012.62 1011.68 1010.83 1010.09 1009.47 1009.00 1008.67 1008.50 1008.47 1008.56 1008.77 1009.08 1009.46 1009.91 1010.41 1010.94 1011.51 1012.09 1012.69 1013.29 1013.90 1014.50 1015.09 1015.67 1016.24 1016.80 1017.34 1017.88 1018.40 1018.92 1019.43
1021.18 1020.87 1020.52 1020.11 1019.64 1019.11 1018.51 1017.83 1017.08 1016.26 1015.38 1014.45 1013.51 1012.58 1011.68 1010.85 1010.11 1009.48 1008.97 1008.58 1008.31 1008.17 1008.13 1008.19 1008.35 1008.60 1008.93 1009.34 1009.81 1010.35 1010.94 1011.58 1012.24 1012.91 1013.58 1014.24 1014.86 1015.46 1016.01 1016.53 1017.02 1017.49 1017.95
1020.78 1020.48 1020.15 1019.80 1019.43 1019.01 1018.54 1018.01 1017.40 1016.71 1015.95 1015.12 1014.25 1013.35 1012.46 1011.60 1010.79 1010.06 1009.41 1008.85 1008.38 1008.02 1007.75 1007.58 1007.51 1007.54 1007.67 1007.91 1008.25 1008.69 1009.22 1009.83 1010.50 1011.19 1011.90 1012.59 1013.25 1013.86 1014.42 1014.93 1015.40 1015.83 1016.25
1020.41 1020.10 1019.79 1019.49 1019.17 1018.84 1018.46 1018.04 1017.54 1016.96 1016.30 1015.57 1014.78 1013.95 1013.10 1012.26 1011.44 1010.66 1009.93 1009.27 1008.67 1008.14 1007.68 1007.30 1007.01 1006.82 1006.74 1006.78 1006.95 1007.25 1007.66 1008.18 1008.78 1009.45 1010.13 1010.81 1011.46 1012.07 1012.62 1013.12 1013.58 1014.00 1014.41
1020.09 1019.79 1019.50 1019.22 1018.94 1018.65 1018.33 1017.97 1017.54 1017.03 1016.46 1015.80 1015.10 1014.34 1013.56 1012.78 1012.00 1011.24 1010.51 1009.80 1009.13 1008.50 1007.90 1007.36 1006.89 1006.50 1006.21 1006.05 1006.02 1006.13 1006.38 1006.75 1007.23 1007.79 1008.39 1009.01 1009.62 1010.19 1010.72 1011.21 1011.66 1012.10 1012.55
1019.87 1019.58 1019.30 1019.03 1018.78 1018.50 1018.21 1017.86 1017.46 1016.99 1016.46 1015.87 1015.24 1014.56 1013.87 1013.17 1012.48 1011.78 1011.10 1010.42 1009.74 1009.06 1008.39 1007.74 1007.12 1006.57 1006.09 1005.73 1005.50 1005.40 1005.45 1005.64 1005.95 1006.35 1006.82 1007.34 1007.86 1008.37 1008.87 1009.34 1009.81 1010.29 1010.79
1019.72 1019.46 1019.20 1018.95 1018.70 1018.43 1018.12 1017.77 1017.37 1016.91 1016.40 1015.85 1015.27 1014.67 1014.07 1013.47 1012.88 1012.28 1011.68 1011.07 1010.43 1009.76 1009.07 1008.36 1007.65 1006.97 1006.34 1005.80 1005.37 1005.07 1004.91 1004.89 1005.01 1005.23 1005.54 1005.92 1006.33 1006.77 1007.22 1007.69 1008.18 1008.70 1009.29
1019.61 1019.40 1019.18 1018.96 1018.71 1018.43 1018.11 1017.74 1017.32 1016.85 1016.34 1015.82 1015.28 1014.74 1014.22 1013.72 1013.23 1012.75 1012.25 1011.72 1011.15 1010.53 1009.85 1009.12 1008.36 1007.59 1006.85 1006.16 1005.57 1005.09 1004.73 1004.52 1004.44 1004.48 1004.62 1004.86 1005.16 1005.52 1005.93 1006.38 1006.90 1007.48 1008.14
1019.50 1019.36 1019.19 1019.01 1018.78 1018.50 1018.16 1017.78 1017.33 1016.85 1016.34 1015.83 1015.33 1014.85 1014.40 1013.98 1013.58 1013.19 1012.79 1012.35 1011.85 1011.27 1010.62 1009.90 1009.12 1008.31 1007.49 1006.70 1005.99 1005.36 1004.86 1004.48 1004.23 1004.11 1004.11 1004.22 1004.42 1004.71 1005.08 1005.53 1006.06 1006.70 1007.45
1019.34 1019.28 1019.18 1019.05 1018.85 1018.59 1018.26 1017.87 1017.42 1016.93 1016.43 1015.94 1015.46 1015.02 1014.63 1014.27 1013.94 1013.63 1013.29 1012.91 1012.47 1011.94 1011.32 1010.61 1009.83 1009.00 1008.15 1007.31 1006.52 1005.82 1005.21 1004.72 1004.36 1004.13 1004.03 1004.05 1004.18 1004.41 1004.75 1005.20 1005.76 1006.43 1007.24
1019.10 1019.12 1019.10 1019.03 1018.88 1018.65 1018.35 1017.97 1017.54 1017.07 1016.59 1016.12 1015.68 1015.28 1014.93 1014.61 1014.33 1014.05 1013.75 1013.41 1012.99 1012.49 1011.90 1011.21 1010.44 1009.62 1008.77 1007.92 1007.12 1006.38 1005.74 1005.21 1004.79 1004.51 1004.35 1004.32 1004.41 1004.62 1004.94 1005.39 1005.96 1006.66 1007.51
1018.77 1018.88 1018.93 1018.92 1018.83 1018.65 1018.39 1018.05 1017.66 1017.24 1016.80 1016.37 1015.96 1015.60 1015.28 1014.99 1014.73 1014.47 1014.18 1013.84 1013.44 1012.94 1012.36 1011.69 1010.95 1010.15 1009.34 1008.53 1007.75 1007.04 1006.42 1005.90 1005.50 1005.21 1005.05 1005.01 1005.09 1005.29 1005.62 1006.06 1006.64 1007.35 1008.20
1018.39 1018.56 1018.68 1018.72 1018.69 1018.56 1018.36 1018.08 1017.74 1017.38 1017.00 1016.62 1016.27 1015.95 1015.66 1015.39 1015.14 1014.88 1014.58 1014.24 1013.82 1013.33 1012.76 1012.11 1011.41 1010.66 1009.90 1009.16 1008.46 1007.82 1007.26 1006.81 1006.45 1006.21 1006.08 1006.07 1006.17 1006.38 1006.71 1007.16 1007.73 1008.43 1009.26
Thickness
5430 5431 5432 5434 5435 5437 5438 5439 5440 5441 5443 5445 5447 5449 5451 5452 5453 5454 5455 5457 5458 5459 5460 5461 5463 5464 5465 5466 5467 5468 5468 5470 5471 5472 5471 5472 5471 5471 5471 5471 5471 5472 5473
5418 5420 5421 5422 5423 5424 5426 5428 5429 5430 5432 5434 5436 5438 5440 5442 5443 5443 5444 5445 5447 5448 5449 5450 5451 5452 5453 5454 5455 5455 5456 5457 5459 5459 5458 5458 5459 5459 5459 5459 5459 5460 5461
5406 5408 5409 5410 5411 5412 5414 5416 5417 5419 5421 5422 5425 5427 5429 5431 5433 5434 5434 5435 5437 5438 5439 5440 5441 5441 5442 5443 5444 5444 5445 5446 5447 5447 5447 5446 5446 5446 5446 5446 5447 5448 5449
5395 5396 5397 5397 5399 5401 5403 5404 5406 5408 5409 5411 5414 5416 5418 5420 5422 5423 5423 5425 5426 5427 5427 5429 5431 5432 5433 5433 5433 5434 5434 5434 5434 5434 5434 5434 5433 5433 5433 5434 5435 5435 5436
5383 5384 5385 5385 5386 5388 5390 5392 5394 5396 5399 5401 5402 5404 5406 5409 5411 5412 5413 5414 5415 5415 5416 5418 5419 5421 5422 5423 5424 5424 5423 5422 5422 5421 5422 5422 5422 5421 5422 5423 5423 5423 5424
5372 5373 5373 5373 5375 5376 5378 5381 5383 5385 5387 5389 5391 5393 5395 5398 5400 5402 5403 5403 5404 5405 5406 5407 5408 5409 5410 5411 5412 5413 5413 5412 5412 5412 5412 5413 5414 5413 5412 5410 5410 5410 5411
5360 5361 5361 5362 5364 5365 5367 5369 5372 5374 5376 5378 5380 5382 5385 5387 5389 5390 5391 5392 5393 5394 5395 5396 5396 5397 5398 5398 5400 5401 5402 5402 5403 5403 5403 5403 5403 5403 5401 5399 5398 5398 5400
5349 5349 5350 5351 5353 5354 5356 5358 5360 5362 5364 5367 5370 5372 5374 5377 5378 5379 5380 5380 5381 5383 5384 5385 5386 5387 5386 5387 5387 5388 5389 5390 5391 5392 5393 5394 5392 5391 5390 5389 5387 5385 5386
5339 5340 5340 5341 5342 5343 5345 5347 5349 5352 5354 5356 5359 5361 5363 5366 5367 5368 5368 5369 5370 5372 5373 5373 5375 5376 5377 5376 5376 5377 5377 5378 5378 5378 5379 5379 5379 5378 5376 5374 5372 5371 5372
5330 5330 5330 5331 5332 5333 5335 5337 5339 5341 5344 5346 5348 5350 5352 5354 5356 5357 5357 5358 5360 5361 5361 5363 5364 5366 5366 5366 5366 5366 5366 5367 5366 5366 5366 5366 5365 5365 5364 5363 5362 5360 5359
5320 5320 5320 5321 5322 5324 5325 5327 5329 5331 5333 5334 5336 5338 5341 5343 5344 5346 5347 5347 5349 5349 5350 5352 5353 5354 5355 5355 5356 5356 5357 5355 5354 5353 5353 5352 5352 5352 5352 5351 5350 5348 5348
5310 5310 5310 5311 5312 5314 5314 5316 5318 5319 5321 5323 5324 5326 5328 5330 5332 5334 5336 5338 5339 5339 5340 5340 5341 5342 5343 5343 5344 5345 5344 5342 5341 5340 5340 5339 5340 5340 5339 5338 5337 5336 5335
5299 5299 5299 5300 5301 5302 5303 5305 5306 5307 5309 5311 5313 5315 5317 5319 5319 5322 5324 5326 5327 5327 5328 5329 5329 5329 5330 5330 5331 5332 5331 5329 5328 5327 5327 5327 5327 5327 5325 5323 5323 5322 5322
5287 5287 5288 5289 5290 5291 5292 5294 5296 5297 5299 5300 5302 5304 5305 5306 5307 5309 5311 5312 5314 5315 5315 5315 5316 5316 5316 5316 5317 5316 5316 5316 5315 5315 5315 5314 5313 5312 5311 5310 5309 5309 5308
5275 5276 5277 5278 5280 5281 5283 5284 5286 5289 5290 5292 5293 5294 5296 5297 5299 5300 5300 5301 5302 5302 5302 5302 5302 5301 5301 5301 5301 5302 5302 5301 5301 5300 5300 5300 5300 5299 5298 5297 5296 5296 5295
5265 5266 5266 5267 5269 5271 5272 5274 5276 5279 5281 5283 5285 5286 5288 5289 5290 5291 5291 5291 5292 5292 5291 5291 5290 5290 5290 5289 5289 5288 5288 5288 5288 5287 5287 5287 5287 5286 5285 5284 5284 5283 5283
5255 5255 5256 5257 5258 5259 5261 5263 5265 5267 5269 5272 5274 5276 5278 5280 5281 5281 5281 5281 5280 5280 5279 5278 5278 5278 5278 5277 5276 5276 5275 5275 5274 5275 5275 5274 5274 5273 5273 5272 5271 5270 5269
5246 5246 5247 5247 5248 5249 5250 5252 5254 5256 5257 5259 5262 5265 5267 5268 5269 5270 5270 5269 5267 5266 5266 5266 5266 5266 5265 5264 5264 5264 5263 5262 5262 5262 5262 5262 5261 5261 5260 5260 5259 5257 5257
5238 5238 5238 5238 5239 5240 5241 5242 5243 5244 5246 5247 5249 5251 5254 5256 5257 5257 5256 5255 5254 5254 5253 5253 5254 5253 5253 5253 5252 5252 5251 5251 5251 5250 5250 5250 5250 5249 5249 5248 5247 5246 5244
5229 5230 5231 5231 5231 5231 5231 5231 5232 5232 5233 5234 5236 5238 5240 5241 5242 5242 5242 5242 5242 5242 5242 5242 5242 5242 5242 5241 5241 5240 5240 5239 5239 5240 5240 5240 5239 5238 5237 5236 5235 5234 5232
5221 5221 5222 5221 5220 5220 5220 5220 5221 5221 5222 5223 5224 5225 5228 5228 5229 5229 5229 5229 5229 5229 5229 5229 5230 5230 5230 5230 5229 5229 5229 5229 5229 5229 5229 5229 5228 5227 5226 5225 5224 5222 5220
5211 5210 5210 5210 5210 5210 5210 5210 5210 5211 5211 5212 5212 5213 5216 5216 5215 5215 5215 5215 5215 5216 5216 5217 5217 5218 5218 5219 5219 5219 5219 5219 5218 5218 5218 5218 5217 5216 5215 5214 5212 5210 5208
5202 5201 5200 5199 5199 5200 5199 5199 5198 5198 5199 5199 5200 5201 5202 5202 5202 5201 5201 5202 5202 5203 5204 5205 5206 5206 5207 5207 5208 5208 5209 5209 5209 5209 5208 5207 5206 5205 5204 5203 5201 5199 5197
5192 5191 5190 5189 5188 5188 5187 5187 5186 5187 5187 5187 5188 5188 5188 5188 5188 5188 5188 5189 5190 5191 5192 5193 5194 5195 5196 5196 5197 5197 5198 5199 5198 5198 5198 5197 5196 5194 5193 5192 5190 5188 5186
5183 5181 5180 5179 5178 5177 5177 5176 5176 5176 5176 5176 5176 5176 5176 5175 5176 5176 5177 5178 5179 5181 5182 5183 5183 5184 5185 5186 5186 5187 5188 5189 5189 5188 5188 5187 5185 5184 5183 5181 5179 5177 5175
5174 5172 5171 5170 5169 5168 5168 5167 5166 5166 5165 5165 5165 5165 5164 5164 5164 5165 5166 5168 5169 5169 5170 5171 5172 5173 5174 5175 5176 5177 5178 5178 5179 5179 5178 5177 5176 5174 5173 5171 5170 5168 5165